Regional Weather Roundup
Issued by NWS New Orleans/Baton Rouge, LA

Home | Current Version | Previous Version | Text Only | Print | Product List | Glossary On
Versions: 1 2 3 4 5 6 7 8 9 10 11 12 13 14 15 16 17 18 19 20 21 22 23 24 25 26 27 28 29 30 31 32 33 34 35 36 37 38 39 40 41 42 43 44 45 46 47 48 49 50
000
ASUS44 KLIX 011711
RWRLIX
NEW ORLEANS REGIONAL WEATHER ROUNDUP
NATIONAL WEATHER SERVICE NEW ORLEANS LA
1200 PM CDT WED APR 01 2015

NOTE: "FAIR" INDICATES FEW OR NO CLOUDS BELOW 12,000 FEET WITH NO
      SIGNIFICANT WEATHER AND/OR OBSTRUCTIONS TO VISIBILITY.
      SKY/WX - SKY CONDITION AND SIGNIFICANT WEATHER.
      TMP - AIR TEMPERATURE.     DP    - DEWPOINT TEMPERATURE.
      RH  - RELATIVE HUMIDITY.   PRES  - PRESSURE.
      HI  - HEAT INDEX.          WCI   - WIND CHILL INDEX.

*  THESE STATIONS ARE NOT NWS OR FAA STATIONS AND ARE NOT UNDER
   NWS QUALITY CONTROL.

LAZ038-040-048-061>063-065>067-069-011800-
SOUTHEAST LOUISIANA

CITY           SKY/WX    TMP DP  RH WIND       PRES   REMARKS
N.O. AUDUBON     N/A     85  69  60 MISG        N/A
N.O. INTL ARPT PTSUNNY   76  60  57 SW10      30.11S
N.O. LAKEFRONT MOSUNNY   79  63  57 N7        30.12S
SLIDELL        MOSUNNY   79  59  50 VRB7      30.11R
BATON ROUGE    MOSUNNY   79  61  53 S7        30.08F
BOOTHVILLE     MOSUNNY   75  66  73 E7        30.14S
BELLE CHASSE   NOT AVBL
BOGALUSA*        N/A     76  64  67 CALM      30.12F
GALLIANO*      MOSUNNY   79  67  64 MISG      30.12F
NEW ROADS*     CLOUDY    78  62  58 S9        30.08F
GONZALES*      PTSUNNY   78  63  59 SW6       30.09F
HAMMOND*       SUNNY     79  59  50 SW6       30.11F
HOUMA*         PTSUNNY   81  64  57 S15       30.11S
PORT FOURCHON* MOSUNNY   75  68  78 VRB7      30.16S

$$

MSZ070-080>082-011800-
SOUTHERN MISSISSIPPI

CITY           SKY/WX    TMP DP  RH WIND       PRES   REMARKS
MCCOMB         CLOUDY    73  63  70 SW7       30.10F
GULFPORT       MOSUNNY   75  65  70 S9        30.11S
BILOXI         SUNNY     75  67  75 S8        30.11F
PASCAGOULA     PTSUNNY   79  63  57 S8        30.11F
STENNIS ARPT*  MOSUNNY   75  55  50 MISG      30.11F

$$

COASTAL OBSERVATIONS
LAKE AND NEARSHORE STATIONS

STATION/POSITION TIME  TEMP    WIND        PRES    WAVE
                       AIR SEA DIR/SP/G            HT/PER
                 (UTC) (F)     (DEG/KT/KT) (MB)    (FT/S)
PASCAGOULA       1600   73     180/  5/  7 1019.6
WAVELAND YACHT   1600   70 69  150/  8/ 10 1019.9
GRAND ISLE       1600   74 71  110/  3/  8 1020.0
SOUTHWEST PASS   1600   73 55   80/  8/  9 1020.6
NEW CANAL        1600   74     230/  2/  4 1020.0
SHELL BEACH      1600   73 71   90/  6/  8 1019.9

OFFSHORE STATIONS

STATION/POSITION TIME  TEMP    WIND        PRES    WAVE
                       AIR SEA DIR/SP/G            HT/PER
                 (UTC) (F)     (DEG/KT/KT) (MB)    (FT/S)
64 S DAUPHIN ISL 1650   72 73  100/  6/  8 1020.7    2/ 5

$$




USA.gov is the U.S. government's official web portal to all federal, state and local government web resources and services.